[[{"header":{"parameterUnit":"m.s-1","parameterCategory":1,"la1":30.2991,"la2":30.254,"lo1":-89.0895,"lo2":-89.0444,"dy":0.0017,"dx":0.0017,"nx":28,"ny":28,"refTime":"2026-02-02T09:00:00:Z","depth":0,"parameterNumber":2,"parameterNumberName":"U-component_of_WINDS"},"data":[0,0,0,0,0,0,0,0,0,0,0,0,0,0,0,0,0,0,0,0,0,0,0,0,0,0,0,0,0,0,0,0,0,0,0,0,0,0,0,0,0,0,0,0,0,0,0,0,0,0,0,0,0,0,0,0,0,0,2.5883,2.5883,0,2.5911,2.5911,2.5912,2.5831,2.5828,2.5826,2.5823,2.5851,2.5854,2.5857,0,0,0,0,0,0,0,0,0,0,0,0,0,2.5759,2.5761,2.5883,2.5883,2.5884,2.5911,2.5911,2.5912,2.5831,2.5828,2.5825,2.5822,2.585,2.5853,2.5857,0,0,0,0,0,0,0,0,0,0,0,0,0,2.5802,2.5762,2.5883,2.5847,2.5844,2.5911,2.5911,2.5912,2.5832,2.5828,2.5824,2.5821,2.5849,2.5853,2.5857,2.596,0,0,2.5871,2.5873,0,0,0,0,0,0,0,0,2.58,2.5807,2.5852,2.585,2.5846,2.5864,2.5877,2.5928,2.5833,2.5836,2.5823,2.5819,2.5858,2.5861,2.5875,2.5961,2.5963,2.5872,2.5875,2.5877,2.5878,0,0,0,0,0,0,0,2.5797,2.5805,2.5894,2.5853,2.5849,2.5829,2.5831,2.5887,2.5868,2.5836,2.583,2.5834,2.5856,2.5871,2.5875,2.5963,2.5872,2.5876,2.5879,2.588,2.6136,2.6139,0,0,0,0,0,0,2.5799,2.5803,2.5893,2.5895,2.5814,2.5834,2.5836,2.5862,2.5867,2.5864,2.5838,2.5831,2.5865,2.587,2.5876,2.5996,2.5876,2.5881,2.5883,2.6132,2.6137,2.6141,0,0,0,0,0,0,2.5797,2.5808,2.5892,2.5848,2.5857,2.584,2.5869,2.5864,2.5879,2.5868,2.5864,2.5857,2.5862,2.5869,2.594,2.5996,2.5883,2.5887,2.6127,2.6133,2.6139,2.6239,0,0,0,0,0,0,2.5793,2.5807,2.5846,2.5849,2.5859,2.5957,2.5873,2.5868,2.5887,2.5879,2.5885,2.5882,2.586,2.5934,2.5945,2.6,2.5891,2.6122,2.613,2.6137,2.6231,2.6248,2.6262,0,0,0,0,0,2.5789,2.5873,2.5849,2.586,2.5908,2.596,2.5966,2.5938,2.5892,2.5931,2.5924,2.5882,2.5988,2.5942,2.5953,2.6011,2.6118,2.6127,2.6136,2.6223,2.6244,2.6262,0,0,0,0,0,0,2.5877,2.5873,2.5846,2.5933,2.5948,2.5946,2.5995,2.5961,2.5989,2.5979,2.5943,2.5945,2.6023,2.6024,2.5972,2.6111,2.6045,2.6057,2.6108,2.6127,2.6143,2.6141,2.5894,0,0,0,0,0,2.5906,2.5949,2.5943,2.6021,2.603,2.6011,2.6033,2.601,2.6024,2.6029,2.6027,2.6042,2.6078,2.6103,2.6135,2.623,2.6231,2.6276,2.6292,2.6305,2.6316,2.6366,2.6386,2.6171,2.6171,2.6171,0,0,2.5968,2.5971,2.6,2.6039,2.6047,2.6092,2.6017,2.6067,2.61,2.6037,2.6104,2.6103,2.6116,2.62,2.6236,2.6203,2.6375,2.6317,2.6327,2.6331,2.6378,2.6398,2.6416,2.6177,2.6176,2.6175,0,0,2.6103,2.611,2.6175,2.6186,2.62,2.6187,2.6203,2.6207,2.6204,2.6271,2.6224,2.6263,2.6326,2.6338,2.6352,2.6492,2.6454,2.6504,2.6587,2.6637,2.6654,2.6668,2.6719,2.6737,2.6515,2.6515,2.6515,0,2.6177,2.6243,2.6213,2.6267,2.6286,2.6231,2.6297,2.6308,2.6332,2.6346,2.6309,2.6388,2.6393,2.6478,2.6513,2.6526,2.6543,2.6503,2.6654,2.6668,2.6682,2.6729,2.6748,2.6521,2.652,2.6519,2.6519,0,2.6334,2.6381,2.6432,2.6458,2.6482,2.6542,2.652,2.6548,2.6524,2.6515,2.6584,2.6589,2.6622,2.664,2.6617,2.6723,2.6702,2.666,2.6593,2.6709,2.6753,2.677,2.6529,2.6527,2.6525,2.6524,0,0,2.6525,2.6533,2.6553,2.6564,2.6576,2.6611,2.6668,2.6701,2.6726,2.6745,2.6792,2.6847,2.6809,2.6825,2.6802,2.6846,2.6957,2.6798,2.6798,2.6828,2.7074,2.7106,2.7127,2.6932,2.6936,2.6938,2.7073,0,2.6658,2.6757,2.6731,2.683,2.6873,2.6822,2.6871,2.6884,2.6878,2.6913,2.6905,2.6945,2.6891,2.6901,2.6942,2.6935,2.7006,2.6925,2.6976,2.6978,2.6974,2.715,2.7183,2.731,2.709,2.7093,2.7095,0,2.6826,2.6852,2.6955,2.6961,2.6977,2.7023,2.7051,2.7086,2.7099,2.7091,2.711,2.7079,2.7135,2.7068,2.7145,2.7091,2.711,2.711,2.7114,2.7118,2.7043,2.7158,2.735,2.7369,2.7122,2.712,2.7118,0,2.6955,2.7016,2.7085,2.7096,2.7104,2.7137,2.7142,2.7152,2.7173,2.7198,2.7212,2.7242,2.7259,2.7284,2.7262,2.7215,2.7342,2.7274,2.7337,2.7338,2.7366,2.7365,2.7564,2.7379,2.7379,2.7378,2.7378,0,2.7106,2.7171,2.7143,2.7186,2.7257,2.7227,2.7299,2.7297,2.7307,2.7348,2.7305,2.7345,2.7313,2.735,2.7333,2.74,2.7408,2.7403,2.7398,2.7407,2.7407,2.7419,2.7409,2.7383,2.7382,2.7381,2.7381,0,2.7262,2.7246,2.7318,2.732,2.7322,2.7375,2.7376,2.7415,2.7406,2.7459,2.747,2.7455,2.7496,2.7477,2.752,2.7508,2.7594,2.7577,2.759,2.7585,2.765,2.7644,2.7863,2.789,2.7688,2.769,2.7692,0,2.7359,2.7408,2.7416,2.7441,2.7449,2.749,2.7512,2.7484,2.7509,2.7528,2.7565,2.7603,2.7631,2.77,2.7693,2.7725,2.7708,2.7783,2.7713,2.7721,2.7709,2.7707,2.7711,2.7797,2.7799,2.7801,2.7803,0,2.7534,2.7524,2.7558,2.7589,2.7617,2.764,2.7659,2.7682,2.7655,2.7685,2.7727,2.775,2.7794,2.7832,2.786,2.7864,2.783,2.7825,2.7841,2.7851,2.7857,2.7854,2.7628,2.782,2.7818,2.7817,2.7816,2.7815,2.7664,2.7705,2.7717,2.7756,2.7768,2.7787,2.7825,2.782,2.7855,2.7889,2.7871,2.792,2.7932,2.7967,2.7976,2.8014,2.7984,2.8008,2.8014,2.802,2.8029,2.7851,2.8019,2.8018,2.8018,2.8017,2.8017,0,2.7836,2.7842,2.7878,2.7907,2.7938,2.7903,2.7923,2.795,2.7994,2.8009,2.8038,2.8087,2.8123,2.8119,2.8153,2.8184,2.8169,2.8194,2.8191,2.8192,2.8053,2.8036,2.8205,2.8205,2.8205,2.8205,2.8205,2.8205,2.793,2.7998,2.7989,2.8063,2.8067,2.8115,2.813,2.8147,2.8159,2.8215,2.8246,2.8243,2.825,2.8284,2.8316,2.8314,2.8328,2.8359,2.8351,2.8221,2.8202,2.8184,2.8168,2.8362,2.8363,2.8487,2.8488,2.8489]},{"header":{"parameterUnit":"m.s-1","parameterCategory":1,"la1":30.2991,"la2":30.254,"lo1":-89.0895,"lo2":-89.0444,"dy":0.0017,"dx":0.0017,"nx":28,"ny":28,"refTime":"2026-02-02T09:00:00:Z","depth":0,"parameterNumber":3,"parameterNumberName":"V-component_of_WINDS"},"data":[0,0,0,0,0,0,0,0,0,0,0,0,0,0,0,0,0,0,0,0,0,0,0,0,0,0,0,0,0,0,0,0,0,0,0,0,0,0,0,0,0,0,0,0,0,0,0,0,0,0,0,0,0,0,0,0,0,0,-2.3795,-2.3797,0,-2.3955,-2.3957,-2.3959,-2.3973,-2.3972,-2.397,-2.3968,-2.4133,-2.4139,-2.4145,0,0,0,0,0,0,0,0,0,0,0,0,0,-2.3501,-2.3506,-2.3795,-2.3797,-2.3799,-2.3955,-2.3957,-2.3959,-2.3974,-2.3971,-2.3969,-2.3967,-2.4131,-2.4138,-2.4145,0,0,0,0,0,0,0,0,0,0,0,0,0,-2.3642,-2.3508,-2.3794,-2.3825,-2.3829,-2.3955,-2.3957,-2.396,-2.3974,-2.3971,-2.3969,-2.3966,-2.4129,-2.4138,-2.4146,-2.4253,0,0,-2.4174,-2.4178,0,0,0,0,0,0,0,0,-2.3634,-2.3653,-2.3818,-2.3823,-2.3828,-2.3942,-2.3914,-2.4058,-2.3975,-2.3919,-2.3968,-2.3965,-2.4072,-2.4085,-2.4121,-2.4261,-2.4268,-2.4175,-2.418,-2.4184,-2.4186,0,0,0,0,0,0,0,-2.3624,-2.3646,-2.3858,-2.382,-2.3826,-2.383,-2.3848,-2.3942,-2.4008,-2.3924,-2.3925,-2.3944,-2.4074,-2.4112,-2.4125,-2.427,-2.4174,-2.4182,-2.4188,-2.4191,-2.4506,-2.4509,0,0,0,0,0,0,-2.3609,-2.3638,-2.3853,-2.3863,-2.3722,-2.3838,-2.3857,-2.3908,-2.4007,-2.4019,-2.3946,-2.3944,-2.4098,-2.4114,-2.4131,-2.4262,-2.4184,-2.4192,-2.4197,-2.4503,-2.4507,-2.451,0,0,0,0,0,0,-2.3602,-2.3628,-2.3847,-2.3751,-2.3779,-2.3846,-2.3902,-2.3912,-2.3951,-2.4023,-2.4035,-2.3973,-2.4097,-2.4118,-2.4223,-2.4268,-2.4196,-2.4204,-2.45,-2.4505,-2.4509,-2.4526,0,0,0,0,0,0,-2.3594,-2.3625,-2.3666,-2.3752,-2.3784,-2.3936,-2.3905,-2.3917,-2.3966,-2.3965,-2.4052,-2.4064,-2.4096,-2.4209,-2.4231,-2.4279,-2.4211,-2.4496,-2.4502,-2.4507,-2.4522,-2.453,-2.4538,0,0,0,0,0,-2.3583,-2.3665,-2.3668,-2.3694,-2.3837,-2.3938,-2.3957,-2.3992,-2.397,-2.4012,-2.4058,-2.4061,-2.426,-2.422,-2.4245,-2.4296,-2.4493,-2.45,-2.4507,-2.4518,-2.4529,-2.4538,0,0,0,0,0,0,-2.3583,-2.3676,-2.3681,-2.3793,-2.3858,-2.394,-2.3994,-2.4002,-2.4075,-2.4071,-2.4112,-2.4132,-2.4235,-2.4276,-2.423,-2.4405,-2.4374,-2.4386,-2.4374,-2.4385,-2.4393,-2.4381,-2.4219,0,0,0,0,0,-2.3596,-2.367,-2.3748,-2.3839,-2.3871,-2.3927,-2.3973,-2.3995,-2.4063,-2.4091,-2.4145,-2.4212,-2.4289,-2.4339,-2.4415,-2.4528,-2.4547,-2.4576,-2.4584,-2.459,-2.46,-2.4663,-2.4677,-2.4532,-2.4532,-2.4532,0,0,-2.3623,-2.3683,-2.3728,-2.3841,-2.3893,-2.397,-2.395,-2.4032,-2.4089,-2.4103,-2.4205,-2.4248,-2.4325,-2.4434,-2.4485,-2.4472,-2.4644,-2.4599,-2.4603,-2.461,-2.4672,-2.4685,-2.4697,-2.4537,-2.4536,-2.4535,0,0,-2.3712,-2.3765,-2.3847,-2.39,-2.398,-2.4017,-2.4037,-2.4119,-2.4148,-2.4251,-2.4263,-2.4332,-2.4464,-2.4519,-2.4564,-2.4675,-2.468,-2.4698,-2.4741,-2.4802,-2.4813,-2.4824,-2.4863,-2.4877,-2.4708,-2.4708,-2.4708,0,-2.3736,-2.3852,-2.3888,-2.397,-2.4019,-2.4035,-2.4118,-2.4168,-2.4269,-2.4303,-2.4286,-2.4453,-2.4506,-2.4629,-2.4656,-2.4692,-2.4716,-2.4688,-2.4809,-2.4819,-2.483,-2.4868,-2.4882,-2.4709,-2.4709,-2.4709,-2.4709,0,-2.3877,-2.3957,-2.4014,-2.411,-2.4166,-2.4248,-2.4297,-2.4349,-2.4366,-2.4405,-2.451,-2.4574,-2.4663,-2.4694,-2.4711,-2.4819,-2.4809,-2.48,-2.477,-2.4844,-2.4881,-2.4896,-2.4712,-2.4711,-2.4711,-2.471,0,0,-2.397,-2.4086,-2.4106,-2.415,-2.424,-2.4303,-2.4386,-2.4472,-2.4516,-2.4585,-2.4656,-2.4768,-2.4761,-2.4812,-2.4836,-2.489,-2.4974,-2.4875,-2.4878,-2.4891,-2.5097,-2.5102,-2.5119,-2.4978,-2.4981,-2.4983,-2.509,0,-2.4069,-2.4216,-2.4252,-2.4378,-2.4453,-2.447,-2.4543,-2.4606,-2.4644,-2.4713,-2.4756,-2.4835,-2.4819,-2.4851,-2.4905,-2.4952,-2.5015,-2.4945,-2.5044,-2.5048,-2.5024,-2.5138,-2.5144,-2.5242,-2.5105,-2.5107,-2.5109,0,-2.4204,-2.4276,-2.441,-2.449,-2.4523,-2.4587,-2.467,-2.4735,-2.4808,-2.4832,-2.489,-2.4908,-2.4996,-2.4962,-2.5083,-2.5034,-2.5077,-2.5107,-2.5112,-2.5122,-2.5082,-2.5151,-2.5274,-2.5288,-2.5132,-2.513,-2.5128,0,-2.4257,-2.4388,-2.4485,-2.4522,-2.4619,-2.4664,-2.4706,-2.4776,-2.4826,-2.4898,-2.4931,-2.5013,-2.5058,-2.5121,-2.5161,-2.5133,-2.528,-2.5249,-2.5302,-2.5301,-2.5332,-2.533,-2.5463,-2.536,-2.536,-2.536,-2.5359,0,-2.4364,-2.4445,-2.4511,-2.457,-2.4662,-2.4702,-2.4792,-2.4835,-2.4897,-2.4966,-2.4986,-2.505,-2.5099,-2.5171,-2.5203,-2.5299,-2.5319,-2.5341,-2.5349,-2.5339,-2.5337,-2.5368,-2.5362,-2.5364,-2.5363,-2.5362,-2.5361,0,-2.4439,-2.4486,-2.4593,-2.4676,-2.4699,-2.4763,-2.4834,-2.4893,-2.4932,-2.5018,-2.5041,-2.5103,-2.5188,-2.5235,-2.5341,-2.5363,-2.547,-2.5474,-2.5445,-2.5449,-2.55,-2.5494,-2.5658,-2.5682,-2.5563,-2.5564,-2.5565,0,-2.4504,-2.4567,-2.4656,-2.4704,-2.4747,-2.4823,-2.4874,-2.4916,-2.4969,-2.5056,-2.5105,-2.5191,-2.5262,-2.5397,-2.5451,-2.5533,-2.5539,-2.5591,-2.5552,-2.554,-2.554,-2.5536,-2.5542,-2.5598,-2.5599,-2.56,-2.56,0,-2.4614,-2.4634,-2.4707,-2.4789,-2.4849,-2.4915,-2.4981,-2.5019,-2.5072,-2.513,-2.5217,-2.5272,-2.5381,-2.5466,-2.5553,-2.5597,-2.5608,-2.5612,-2.5629,-2.562,-2.5601,-2.5612,-2.5464,-2.5608,-2.5608,-2.5607,-2.5607,-2.5606,-2.4686,-2.4743,-2.4815,-2.4896,-2.495,-2.5011,-2.507,-2.5117,-2.519,-2.5282,-2.5302,-2.5394,-2.5466,-2.5582,-2.5629,-2.5702,-2.5692,-2.5716,-2.5722,-2.5728,-2.5729,-2.5589,-2.5718,-2.5717,-2.5717,-2.5717,-2.5717,0,-2.4797,-2.4844,-2.4918,-2.5009,-2.5073,-2.5078,-2.5151,-2.5204,-2.5284,-2.535,-2.5419,-2.5519,-2.5602,-2.5664,-2.5749,-2.5795,-2.5803,-2.5816,-2.5813,-2.5823,-2.5733,-2.571,-2.5809,-2.5809,-2.5809,-2.5809,-2.5809,-2.5809,-2.4862,-2.4959,-2.4988,-2.5111,-2.5158,-2.5248,-2.5289,-2.5346,-2.5398,-2.5509,-2.5578,-2.5618,-2.5682,-2.5772,-2.5848,-2.5864,-2.5895,-2.5908,-2.5924,-2.5839,-2.5829,-2.582,-2.5799,-2.5914,-2.5914,-2.6008,-2.6009,-2.601]}]]